x

South Santa Rosa Is. Ca (46069) Wave Buoy

1:50 - Sun 20th Apr 2014 All times are PDT. -7 hours from GMT.

  • Sig Wave height 5.2ft
  • Peak Period 14s
  • Average Period 6s
  • Wind
    16mph, 18mph gusts
  • Sea Temp 58°f
  • Luft Temp 55°f
  • Sea Pressure 1018.3mb
  • South Santa Rosa Is. Ca
  • South Santa Rosa Is. Ca

More Historic Weather Station data

Upgrade to MSW Pro to gain access to the past 30 days of data for over 8000 Wavebouys and Weather Stations around the globe.

Join Pro

Comparision Forecast

View Surf forecast
   
So 04/20 1:50 5ft 14s 6s 16 18 mph 1018.3mb 58f 55f
12:50 6ft 13s 7s 16 18 mph 1018.7mb 58f 54f
11:50 5ft 13s 6s 11 13 mph 1019mb 58f 55f
10:50 6ft 14s 7s 11 13 mph 1019mb 58f 55f
9:50 6.5ft 13s 7s 9 11 mph 1018.4mb 57f 54f
8:50 7ft 13s 7s 11 13 mph 1018.3mb 57f 54f
7:50 6.5ft 14s 7s 11 13 mph 1017.9mb 57f 54f
6:50 7ft 8s 6s 16 18 mph 1017.2mb 57f 53f
5:50 7ft 8s 6s 16 20 mph 1016.8mb 57f 53f
4:50 8ft 8s 6s 18 20 mph 1016.7mb 57f 53f
3:50 8ft 8s 6s 20 25 mph 1016.6mb 57f 54f
2:50 8.5ft 8s 6s 20 22 mph 1017.1mb 57f 54f
1:50 9ft 8s 6s 27 31 mph 1016.6mb 58f 55f
12:50 9ft 7s 6s 29 34 mph 1016.5mb 58f 55f
Sa 04/19 11:50 8ft 6s 5s 27 34 mph 1016.4mb 58f 56f
10:50 8ft 7s 5s 29 34 mph 1016.5mb 58f 56f
9:50 8ft 6s 6s 29 36 mph 1016.5mb 58f 56f
8:50 7ft 7s 5s 27 34 mph 1016.3mb 58f 57f
7:50 8ft 11s 6s 31 36 mph 1015.6mb 58f 57f
6:50 7ft 8s 5s 25 29 mph 1016mb 58f 57f
5:50 7ft 14s 5s 25 29 mph 1016.1mb 58f 57f
4:50 6.5ft 11s 5s 22 27 mph 1016.4mb 58f 57f
3:50 6.5ft 15s 5s 25 27 mph 1016.5mb 58f 57f
2:50 6ft 15s 6s 22 27 mph 1016.7mb 58f 56f
1:50 6.5ft 11s 6s 22 27 mph 1016.7mb 58f 56f
12:50 6ft 11s 6s 20 25 mph 1017.1mb 58f 56f
11:50 6ft 11s 6s 20 25 mph 1017.2mb 58f 56f
10:50 6.5ft 10s 5s 22 25 mph 1017.2mb 58f 55f
9:50 7ft 15s 6s 20 25 mph 1016.7mb 58f 55f
8:50 6ft 11s 6s 22 25 mph 1016.2mb 58f 55f
7:50 6.5ft 11s 6s 18 22 mph 1015.8mb 58f 55f
6:50 6.5ft 11s 6s 18 20 mph 1015.3mb 58f 55f
5:50 6ft 11s 6s 20 25 mph 1014.9mb 58f 54f
4:50 6.5ft 10s 6s 20 22 mph 1014.7mb 58f 55f
3:50 6.5ft 11s 6s 18 22 mph 1014.2mb 58f 54f
2:50 6ft 8s 6s 20 25 mph 1013.9mb 58f 55f
1:50 5.5ft 11s 5s 20 22 mph 1013.7mb 58f 55f
12:50 6.5ft 11s 6s 20 25 mph 1014mb 58f 55f
Fr 04/18 11:50 7ft 11s 6s 22 29 mph 1014.1mb 58f 55f
10:50 6.5ft 11s 5s 25 29 mph 1014.2mb 58f 56f
9:50 6ft 8s 5s 25 27 mph 1014.1mb 58f 56f
8:50 7ft 11s 6s 25 29 mph 1013.6mb 58f 56f
7:50 6.5ft 11s 6s 25 29 mph 1013.1mb 58f 56f
6:50 7ft 11s 5s 25 29 mph 1012.9mb 59f 57f
5:50 7ft 11s 6s 25 29 mph 1012.9mb 59f 57f
4:50 7ft 8s 6s 22 27 mph 1012.9mb 59f 57f
3:50 7ft 12s 6s 20 22 mph 1013.1mb 59f 57f
2:50 8ft 11s 7s 20 22 mph 1013.6mb 59f 57f
1:50 8ft 9s 7s 11 16 mph 1013.7mb 59f 57f
12:50 7ft 10s 7s 11 13 mph 1013.9mb 58f 57f
11:50 7.5ft 11s 7s 9 11 mph 1013.7mb 58f 57f
10:50 6.5ft 12s 7s 13 16 mph 1013.7mb 58f 57f
9:50 7ft 11s 7s 11 13 mph 1013.6mb 58f 57f
8:50 6ft 11s 7s 13 18 mph 1013.1mb 58f 56f
7:50 6ft 11s 7s 16 18 mph 1012.8mb 58f 56f
6:50 6ft 11s 7s 18 20 mph 1012.4mb 58f 56f
5:50 6.5ft 12s 8s 13 16 mph 1012mb 58f 57f
4:50 6ft 11s 8s 13 18 mph 1011.8mb 58f 57f
3:50 6.5ft 10s 8s 13 16 mph 1011.8mb 58f 57f
2:50 6ft 13s 8s 7 9 mph 1011.8mb 58f 58f
1:50 6.5ft 13s 8s 7 9 mph 1012mb 58f 57f
12:50 6ft 9s 7s 9 11 mph 1012mb 58f 57f
Do 04/17 11:50 6ft 11s 7s 11 13 mph 1011.9mb 58f 56f
10:50 6ft 9s 7s 13 16 mph 1012.4mb 58f 56f
9:50 6ft 11s 7s 13 16 mph 1012.6mb 58f 57f
8:50 6ft 11s 7s 13 16 mph 1012.3mb 58f 57f
7:50 6ft 10s 6s 16 18 mph 1011.4mb 58f 57f
6:50 6ft 10s 7s 18 20 mph 1011mb 58f 57f
5:50 6ft 11s 7s 16 18 mph 1011.3mb 58f 57f
3:50 6.5ft 11s 7s 11 13 mph 1011.6mb 58f 58f
2:50 7ft 10s 8s 11 16 mph 1012.2mb 58f 57f
1:50 7ft 9s 8s 9 11 mph 1012.6mb 58f 57f
12:50 6.5ft 10s 7s 7 9 mph 1012.7mb 58f 58f
11:50 7ft 10s 8s 4 7 mph 1013.1mb 58f 58f
10:50 7ft 11s 8s 4 7 mph 1012.9mb 58f 58f
9:50 7ft 11s 8s 2
mph
1012.3mb 58f 58f
8:50 7ft 11s 7s 2
mph
1012.1mb 58f 58f
7:50 7.5ft 11s 8s 4 7 mph 1011.5mb 58f 57f
6:50 7ft 11s 8s 7 9 mph 1011.2mb 58f 57f
5:50 7.5ft 11s 8s 9 11 mph 1010.3mb 58f 57f
4:50 7.5ft 11s 8s 7
mph
1010.6mb 58f 57f
3:50 9ft 11s 8s 2 4 mph 1010.5mb 58f 56f
2:50 7.5ft 11s 7s 11 13 mph 1010.1mb 57f 56f
1:50 7.5ft 11s 7s 13 16 mph 1010.5mb 57f 56f
12:50 7ft 12s 7s 11 13 mph 1010.7mb 57f 56f
Mi 04/16 11:50 8ft 11s 6s 16 18 mph 1010.5mb 57f 56f
10:50 8ft 11s 6s 18 25 mph 1010.5mb 57f 57f